Cambridge, MN

2:35 AM CDT on July 25, 2017 (GMT -0500)
Cambridge Municipal

Weather History for KCBG - November, 2012

Change the Weather History Date:

Friday, November 23, 2012

  Actual Average Record
Temperature  
Mean Temperature 17 °F -  
Max Temperature 24 °F 31 °F 111 °F (1998)
Min Temperature 10 °F 16 °F -8 °F (1950)
Degree Days  
Heating Degree Days 48    
Moisture  
Dew Point 16 °F    
Average Humidity 82    
Maximum Humidity 92    
Minimum Humidity 74    
Precipitation  
Precipitation 0.00 in - - ()
Sea Level Pressure  
Sea Level Pressure 30.20 in    
Wind  
Wind Speed 14 mph (WNW)    
Max Wind Speed 21 mph    
Max Gust Speed 30 mph    
Visibility 9 miles    
Events Snow    
Averages and records for this station are not official NWS values.
T = Trace of Precipitation, MM = Missing Value Source: NWS Daily Summary

Daily Weather History Graph

Daily Weather History Graph

Search for Another Location

Airport or City:

Trip Planner

Search our weather history database for the weather conditions in past years. The results will help you decide how hot, cold, wet, or windy it might be!

Date:

Astronomy

Nov. 23, 2012 Rise Set
Actual Time 7:23 AM CST 4:35 PM CST
Civil Twilight 6:50 AM CST 5:08 PM CST
Nautical Twilight 6:14 AM CST 5:44 PM CST
Astronomical Twilight 5:38 AM CST 6:20 PM CST
Moon 2:00 PM CST (11/23) 2:31 AM CST (11/23)
Length of Visible Light 10h 17m
Length of Day
9h 11m
Waxing Gibbous, 80% of the Moon is Illuminated
Nov 23
Waxing Gibbous
Nov 28
Full
Dec 6
Last Quarter
Dec 13
New
Dec 19
First Quarter

Hourly Weather History & Observations

Time (CST) Temp. Windchill Dew Point Humidity Pressure Visibility Wind Dir Wind Speed Gust Speed Precip Events Conditions
12:15 AM 21.2 °F 7.3 °F 17.6 °F 86% 29.92 in 10.0 mi West 16.1 mph 23.0 mph N/A   Overcast
12:36 AM 21.2 °F 6.8 °F 17.6 °F 86% 29.93 in 10.0 mi West 17.3 mph 25.3 mph N/A Snow Light Snow
12:56 AM 21.2 °F 8.3 °F 17.6 °F 86% 29.94 in 10.0 mi WNW 13.8 mph 20.7 mph N/A   Overcast
1:16 AM 21.2 °F 7.8 °F 17.6 °F 86% 29.95 in 7.0 mi West 15.0 mph 23.0 mph N/A Snow Light Snow
1:35 AM 21.2 °F 6.8 °F 17.6 °F 86% 29.95 in 7.0 mi WNW 17.3 mph 23.0 mph N/A Snow Light Snow
1:56 AM 21.2 °F 9.5 °F 17.6 °F 86% 29.97 in 7.0 mi West 11.5 mph 25.3 mph N/A Snow Light Snow
2:16 AM 19.4 °F 5.0 °F 15.8 °F 86% 29.98 in 4.0 mi West 16.1 mph 23.0 mph N/A Snow Light Snow
2:35 AM 19.4 °F 5.0 °F 15.8 °F 86% 29.99 in 4.0 mi WNW 16.1 mph 24.2 mph N/A Snow Light Snow
2:56 AM 19.4 °F 4.5 °F 15.8 °F 86% 30.00 in 4.0 mi WNW 17.3 mph 27.6 mph N/A Snow Light Snow
3:16 AM 19.4 °F 4.5 °F 15.8 °F 86% 30.00 in 7.0 mi West 17.3 mph 29.9 mph N/A Snow Light Snow
3:35 AM 19.4 °F 4.5 °F 15.8 °F 86% 30.01 in 10.0 mi West 17.3 mph 25.3 mph N/A Snow Light Snow
3:56 AM 19.4 °F 3.2 °F 15.8 °F 86% 30.02 in 10.0 mi WNW 20.7 mph 29.9 mph N/A Snow Light Snow
4:16 AM 19.4 °F 4.1 °F 15.8 °F 86% 30.03 in 10.0 mi West 18.4 mph 27.6 mph N/A Snow Light Snow
4:35 AM 19.4 °F 4.1 °F 15.8 °F 86% 30.04 in 10.0 mi WNW 18.4 mph 26.5 mph N/A Snow Light Snow
4:56 AM 19.4 °F 5.0 °F 15.8 °F 86% 30.06 in 10.0 mi WNW 16.1 mph 25.3 mph N/A Snow Light Snow
5:16 AM 19.4 °F 5.0 °F 15.8 °F 86% 30.07 in 10.0 mi WNW 16.1 mph 25.3 mph N/A Snow Light Snow
5:35 AM 19.4 °F 4.1 °F 15.8 °F 86% 30.08 in 10.0 mi WNW 18.4 mph 27.6 mph N/A Snow Light Snow
5:55 AM 19.4 °F 4.1 °F 15.8 °F 86% 30.09 in 10.0 mi WNW 18.4 mph 24.2 mph N/A Snow Light Snow
6:16 AM 19.4 °F 3.2 °F 15.8 °F 86% 30.10 in 10.0 mi WNW 20.7 mph 25.3 mph N/A Snow Light Snow
6:36 AM 19.4 °F 5.5 °F 15.8 °F 86% 30.12 in 7.0 mi WNW 15.0 mph 24.2 mph N/A Snow Light Snow
6:55 AM 19.4 °F 6.6 °F 15.8 °F 86% 30.13 in 10.0 mi NW 12.7 mph 19.6 mph N/A Snow Light Snow
7:16 AM 19.4 °F 5.5 °F 15.8 °F 86% 30.14 in 7.0 mi WNW 15.0 mph 19.6 mph N/A Snow Light Snow
7:36 AM 19.4 °F 6.0 °F 15.8 °F 86% 30.15 in 10.0 mi WNW 13.8 mph 19.6 mph N/A Snow Light Snow
7:55 AM 19.4 °F 6.6 °F 15.8 °F 86% 30.16 in 10.0 mi WNW 12.7 mph 20.7 mph N/A Snow Light Snow
8:16 AM 19.4 °F 6.6 °F 15.8 °F 86% 30.17 in 10.0 mi WNW 12.7 mph 21.9 mph N/A Snow Light Snow
8:36 AM 21.2 °F 9.5 °F 15.8 °F 80% 30.18 in 10.0 mi NW 11.5 mph 21.9 mph N/A Snow Light Snow
8:55 AM 21.2 °F 9.5 °F 15.8 °F 80% 30.19 in 7.0 mi NW 11.5 mph 17.3 mph N/A Snow Light Snow
9:15 AM 21.2 °F 9.5 °F 17.6 °F 86% 30.20 in 7.0 mi NW 11.5 mph 17.3 mph N/A Snow Light Snow
9:36 AM 21.2 °F 8.9 °F 17.6 °F 86% 30.21 in 10.0 mi WNW 12.7 mph 17.3 mph N/A Snow Light Snow
9:55 AM 21.2 °F 8.9 °F 17.6 °F 86% 30.22 in 7.0 mi WNW 12.7 mph 23.0 mph N/A Snow Light Snow
10:16 AM 21.2 °F 7.8 °F 17.6 °F 86% 30.23 in 10.0 mi WNW 15.0 mph 23.0 mph N/A Snow Light Snow
10:36 AM 21.2 °F 8.9 °F 17.6 °F 86% 30.24 in 10.0 mi WNW 12.7 mph 20.7 mph N/A Snow Light Snow
10:55 AM 23.0 °F 10.6 °F 17.6 °F 80% 30.25 in 10.0 mi WNW 13.8 mph - N/A Snow Light Snow
11:16 AM 23.0 °F 10.1 °F 17.6 °F 80% 30.25 in 10.0 mi WNW 15.0 mph 18.4 mph N/A Snow Light Snow
11:36 AM 23.0 °F 11.1 °F 17.6 °F 80% 30.25 in 10.0 mi WNW 12.7 mph 20.7 mph N/A Snow Light Snow
11:55 AM 24.8 °F 11.5 °F 17.6 °F 74% 30.26 in 10.0 mi WNW 17.3 mph 23.0 mph N/A Snow Light Snow
12:16 PM 24.8 °F 14.0 °F 17.6 °F 74% 30.26 in 10.0 mi WNW 11.5 mph 24.2 mph N/A Snow Light Snow
12:36 PM 24.8 °F 11.9 °F 17.6 °F 74% 30.26 in 10.0 mi NW 16.1 mph 23.0 mph N/A Snow Light Snow
12:55 PM 24.8 °F 12.9 °F 17.6 °F 74% 30.26 in 10.0 mi NW 13.8 mph 24.2 mph N/A Snow Light Snow
1:16 PM 24.8 °F 12.9 °F 17.6 °F 74% 30.27 in 10.0 mi WNW 13.8 mph 24.2 mph N/A Snow Light Snow
1:35 PM 24.8 °F 13.4 °F 17.6 °F 74% 30.26 in 10.0 mi WNW 12.7 mph 17.3 mph N/A   Overcast
1:56 PM 24.8 °F 16.1 °F 17.6 °F 74% 30.27 in 10.0 mi NNW 8.1 mph 20.7 mph N/A   Overcast
2:15 PM 24.8 °F 14.0 °F 17.6 °F 74% 30.26 in 10.0 mi NW 11.5 mph 19.6 mph N/A   Overcast
2:35 PM 24.8 °F 14.0 °F 17.6 °F 74% 30.27 in 10.0 mi NW 11.5 mph 18.4 mph N/A   Overcast
2:56 PM 24.8 °F 14.6 °F 17.6 °F 74% 30.28 in 10.0 mi NNW 10.4 mph 17.3 mph N/A   Overcast
3:15 PM 24.8 °F 15.3 °F 17.6 °F 74% 30.28 in 10.0 mi NW 9.2 mph - N/A   Overcast
3:36 PM 24.8 °F 16.1 °F 17.6 °F 74% 30.30 in 10.0 mi NW 8.1 mph - N/A   Overcast
3:56 PM 24.8 °F 15.3 °F 17.6 °F 74% 30.30 in 10.0 mi NW 9.2 mph 17.3 mph N/A   Overcast
4:15 PM 24.8 °F 15.3 °F 17.6 °F 74% 30.30 in 10.0 mi WNW 9.2 mph - N/A   Overcast
4:36 PM 23.0 °F 12.4 °F 17.6 °F 80% 30.31 in 10.0 mi WNW 10.4 mph - N/A   Overcast
4:55 PM 23.0 °F 12.4 °F 17.6 °F 80% 30.31 in 10.0 mi WNW 10.4 mph - N/A   Overcast
5:16 PM 23.0 °F 14.7 °F 17.6 °F 80% 30.32 in 10.0 mi WNW 6.9 mph - N/A   Overcast
5:36 PM 23.0 °F 11.7 °F 17.6 °F 80% 30.32 in 10.0 mi WNW 11.5 mph - N/A   Overcast
5:55 PM 23.0 °F 13.9 °F 17.6 °F 80% 30.32 in 10.0 mi WNW 8.1 mph - N/A   Overcast
6:16 PM 21.2 °F 10.9 °F 17.6 °F 86% 30.32 in 10.0 mi West 9.2 mph - N/A   Overcast
6:36 PM 21.2 °F 10.1 °F 15.8 °F 80% 30.32 in 10.0 mi WNW 10.4 mph - N/A   Overcast
6:55 PM 21.2 °F 11.7 °F 15.8 °F 80% 30.33 in 10.0 mi WNW 8.1 mph - N/A   Overcast
7:16 PM 21.2 °F 10.9 °F 15.8 °F 80% 30.33 in 10.0 mi WNW 9.2 mph - N/A   Overcast
7:36 PM 19.4 °F 8.6 °F 15.8 °F 86% 30.33 in 10.0 mi WNW 9.2 mph - N/A   Overcast
7:56 PM 19.4 °F 9.5 °F 14.0 °F 80% 30.33 in 10.0 mi West 8.1 mph - N/A   Overcast
8:16 PM 17.6 °F 7.3 °F 12.2 °F 79% 30.33 in 10.0 mi West 8.1 mph - N/A   Mostly Cloudy
8:35 PM 15.8 °F 4.2 °F 12.2 °F 86% 30.33 in 10.0 mi West 9.2 mph - N/A   Scattered Clouds
8:56 PM 15.8 °F 6.1 °F 10.4 °F 79% 30.34 in 10.0 mi West 6.9 mph - N/A Snow Light Snow
9:16 PM 15.8 °F 6.1 °F 10.4 °F 79% 30.34 in 10.0 mi West 6.9 mph - N/A   Clear
9:36 PM 14.0 °F 5.1 °F 10.4 °F 86% 30.34 in 10.0 mi WNW 5.8 mph - N/A Snow Light Snow
9:56 PM 12.2 °F 4.3 °F 10.4 °F 92% 30.33 in 10.0 mi WNW 4.6 mph - N/A   Clear
10:15 PM 12.2 °F 4.3 °F 8.6 °F 85% 30.33 in 10.0 mi WNW 4.6 mph - N/A   Clear
10:36 PM 12.2 °F 4.3 °F 8.6 °F 85% 30.33 in 10.0 mi West 4.6 mph - N/A   Clear
10:55 PM 12.2 °F 4.3 °F 8.6 °F 85% 30.32 in 10.0 mi NW 4.6 mph - N/A   Clear
11:16 PM 10.4 °F 4.0 °F 8.6 °F 92% 30.32 in 10.0 mi WNW 3.5 mph - N/A   Clear
11:36 PM 10.4 °F 4.0 °F 8.6 °F 92% 30.32 in 10.0 mi WNW 3.5 mph - N/A   Clear
11:55 PM 10.4 °F 2.2 °F 6.8 °F 85% 30.32 in 10.0 mi WNW 4.6 mph - N/A   Clear